Showing default

YAOGAN-39 04A, 58141

Orbit data source: Space-Track

YAOGAN-39 04A, 58141 is a payload satellite owned by PLA GAD (CN) in LEO that was launched on Mon, 23 Oct 2023 UTC via a CHANG ZHENG 2D launch vehicle from the Xichang Space Center, China (XSC). Payload-class satellites include a variety of spacecraft equipped with specific instruments for various scientific and technological missions. These include communications satellites like Starlink; space stations such as the ISS; scientific satellites like the Hubble; Earth observation satellites from companies like Planet Labs, Umbra, and HawkEye 360; GPS; miniature CubeSats for education and research; and military/defense satellites.

Loading next visibility...
Identifier
58141, 2023-163A
Orbit
LEO
Last TLE update
9 hours ago
Origin
Manufacturer
DFH
Mission
Operational Defense Sigint
Bus & Motor
Unknown
Mass
~300 kg wet, ~300 kg dry
Launch date (UTC)
2023-10-23 (2 years ago)
Launch vehicle
CHANG ZHENG 2D
Launch site
Xichang Space Center, China (XSC)
Object type
Payload
Rocket body
Debris
Shape & HBR
Box + 2 Pan, 2.5 m
Radar Cross Section
11.063 m², Large (>1 m²)

Expand to show TLE details & history

TLE from 9 hours ago
0 YAOGAN-39 04A
1 58141U 23163A   25199.57850157  .00009098  00000-0  37916-3 0  9993
2 58141  34.9997 282.7716 0006823 234.1457 125.8625 15.22944362 96686
Epoch: 2025-07-18T13:53Z
TLE epoch observation values (Epoch: 2025-07-18T13:53:02.535Z)
Latitude
0.00002°
Longitude
137.88312°
Altitude
498.622 km
Speed
7.616 km/s
True Right ascension
18h 51m 05s
True Declination
0° 00' 00"
Sunlit
Object was in full shadow at epoch
Visualization orbit readout
Latitude
5.947°
Longitude
143.90613°
Altitude
498.452 km
Speed
7.616 km/s
Apparent Right ascension
21h 14m 13s
Apparent Declination
-19° 33' 09"
Sunlit
Object is in full shadow
Visualization observer readout
Local Sidereal Time
12:09:44
Azimuth
74.66° E
Elevation
-47.369°
Doppler factor
1
Orbital elements
Apogee altitude
504.908 km
Perigee altitude
495.522 km
Semi-major axis
6,878.352 km
Eccentricity
0.00068
Inclination
34.9997°
RAAN
282.7716°
Arg. of periapsis
234.1457°
True anomaly
125.92583°
Mean anomaly
125.8625°
Eccentric anomaly
125.89417°
Mean motion
3.80467 °/min
Orbital period
94.62 mins
BSTAR
0.00037916
Loading maneuver chart data...
Loading SW <> Apogee altitude chart data...
Loading historical data...
Loading historical data...
Loading historical data...
Loading historical data...
Loading historical data...
Loading historical data...
Loading historical data...
Other satellites on launch #163 in the year 2023 (2023-10-23 UTC)
|